STARLINK-5736, 55584

Orbit data source: Space-Track

STARLINK-5736, 55584 is a payload satellite owned by SpaceX/Seattle (US) in LEO that was launched on Sun, 12 Feb 2023 UTC via an FALCON 9 launch vehicle from the Air Force Eastern Test Range (AFETR). Payload-class satellites include a variety of spacecraft equipped with specific instruments for various scientific and technological missions. These include communications satellites like Starlink; space stations such as the ISS; scientific satellites like the Hubble; Earth observation satellites from companies like Planet Labs, Umbra, and HawkEye 360; GPS; miniature CubeSats for education and research; and military/defense satellites.

Loading next visibility...
Identifier
55584, 2023-020R
Orbit
LEO
Country
Flag of USUS
Related business
Manufacturer
SpaceX/Seattle
Mission
Operational Commercial Communications
Bus & Motor
STARLINK, Unknown motor
Mass
305 kg wet, ~290 kg dry
Launch date (UTC)
2023-02-12 (3 years ago)
Launch vehicle
FALCON 9
Launch site
Air Force Eastern Test Range (AFETR)
Object type
Payload
Rocket body
Debris
Shape & HBR
Box + 1 Pan, 10.1 m
Radar Cross Section
13.562 m², Large (>1 m²)

Expand to show TLE details & history
Last TLE update: 23 hours ago

TLE from 23 hours ago
0 STARLINK-5736
1 55584U 23020R   26061.33880540  .00001035  00000-0  91682-4 0  9999
2 55584  43.0039  44.5738 0001182 271.4681  88.6026 15.02540481167813
Epoch: 2026-03-02T08:07Z
TLE epoch observation values (Epoch: 2026-03-02T08:07:52.786Z)
Latitude
-0.00002°
Longitude
122.47019°
Altitude
558.824 km
Speed
7.584 km/s
True Right ascension
02h 58m 17s
True Declination
0° 00' 00"
Sunlit
Object was in daylight at epoch
Visualization orbit readout
Latitude
Unknown
Longitude
Unknown
Altitude
Unknown
Speed
Unknown
Apparent Right ascension
Unknown
Apparent Declination
Unknown
Sunlit
N/A
Visualization observer readout
Local Sidereal Time
11:20:47
Azimuth
Unknown
Elevation
Unknown
Doppler factor
Unknown
Orbital elements
Apogee altitude
561.809 km
Perigee altitude
560.169 km
Semi-major axis
6,939.126 km
Eccentricity
0.00012
Inclination
43.0039°
RAAN
44.5738°
Arg. of periapsis
271.4681°
True anomaly
88.61614°
Mean anomaly
88.6026°
Eccentric anomaly
88.60937°
Mean motion
3.75479 °/min
Orbital period
95.88 mins
BSTAR
0.000091682
Loading maneuver chart data...
Computing Atmospheric mass density...
Loading historical data...
Loading historical data...
Loading historical data...
Loading historical data...
Loading historical data...
Loading historical data...
Loading historical data...

Documentation

Showing up to 5 results
|